Notices

What's New in latest Release from April 7th, 2021:

- Updated Glossary, including Speed of Maximum Gust, and Total Hourly Precipitation

- Updated national and regional climate services offices contacts and prices information

- Addition of station inventory lists for 1981-2010, 1971-2000, and 1961-1990 Normals.

If you haven't already, please take our survey and provide feedback about our website: https://eccc.sondage-survey.ca/f/LanguageSelection.aspx?s=442ca660-fcf1-47c0-95a9-59707d6fd709

Hourly Data Report for October 25, 2019

QUALICUM BEACH AIRPORT
BRITISH COLUMBIA
Current Station Operator: ECCC - MSC

49°20'14.000" N
124°23'38.000" W
58.20 m
1026562
71766
VOQ

Download Data

Hourly Data (October 2019)
Hourly Data Report for October 25, 2019
TIME
LST
Temp Definition
°C
Dew Point Definition
°C
Rel Hum Definition
%
Precip. Amount Definition
mm

Wind Dir Definition
10's deg

Wind Spd Definition
km/h
Visibility Definition
km
Stn Press Definition
kPa
Hmdx Definition


Wind Chill Definition


Weather Definition


00:00 9.0 8.2 95 0.0 11 5   101.41     LegendNANA
01:00 8.9 7.8 93 0.0 11 3   101.29     LegendNANA
02:00 9.6 8.3 92 0.0 24 5   101.25     LegendNANA
03:00 9.5 8.6 94 0.0 14 5   101.04     LegendNANA
04:00 9.3 8.3 94 0.0 3 5   100.71     LegendNANA
05:00 11.0 9.7 92 0.0 10 5   100.85     LegendNANA
06:00 10.5 9.8 95 0.7 14 4   100.86     LegendNANA
07:00 9.3 8.6 96 2.8 31 18   101.14     LegendNANA
08:00 9.6 8.8 95 0.0 29 7   101.20     LegendNANA
09:00 9.6 8.3 91 0.0 28 10   101.30     LegendNANA
10:00 10.6 7.3 80 0.0 31 18   101.36     LegendNANA
11:00 11.5 6.9 73 0.0 31 18   101.43     LegendNANA
12:00 12.2 6.6 68 0.0 31 19   101.47     LegendNANA
13:00 12.6 6.5 66 0.0 33 16   101.50     LegendNANA
14:00 12.9 6.2 64 0.0 32 17   101.49     LegendNANA
15:00 12.6 5.0 60 0.0 33 22   101.50     LegendNANA
16:00 12.2 4.3 59 0.0 32 25   101.57     LegendNANA
17:00 11.3 4.3 62 0.0 33 22   101.64     LegendNANA
18:00 10.7 3.5 61 0.0 33 18   101.70     LegendNANA
19:00 10.6 4.1 64 0.0 31 20   101.76     LegendNANA
20:00 9.4 2.6 62 0.0 30 10   101.79     LegendNANA
21:00 8.5 2.5 66 0.0 34 4   101.83     LegendNANA
22:00 8.8 1.9 62 0.0 22 3   101.87     LegendNANA
23:00 9.1 2.5 63 0.0 29 10   101.90     LegendNANA

Notes on Data Quality.

Legend

  • E = Estimated
  • M = Missing
  • NA = Not Available*
  • [empty] = Indicates an unobserved value
Date modified: